CALSPHERE 1 1 00900U 64063C 26195.64204772 .00000394 00000+0 39180-3 0 9992 2 00900 90.2211 72.4144 0023895 205.8624 219.2783 13.76650602 75204 CALSPHERE 2 1 00902U 64063E 26195.61897909 .00000033 00000+0 35574-4 0 9995 2 00902 90.2345 76.4509 0019675 142.6634 283.2733 13.52902351859978 LCS 1 1 01361U 65034C 26195.43569456 -.00000011 00000+0 -25499-2 0 9998 2 01361 32.1400 112.3212 0012379 219.5234 140.4361 9.89310678212581 TEMPSAT 1 1 01512U 65065E 26195.54209411 .00000032 00000+0 44967-4 0 9998 2 01512 89.9978 212.5948 0070018 170.2269 343.6616 13.33595544963699 CALSPHERE 4A 1 01520U 65065H 26195.57991642 .00000067 00000+0 11104-3 0 9998 2 01520 89.8988 122.2186 0071307 27.7350 152.2434 13.36283062966369 OPS 5712 (P/L 160) 1 02826U 67053A 26195.59522786 .00003662 00000+0 51647-3 0 9998 2 02826 69.9179 331.0969 0002076 302.9161 57.1787 14.78069681 70281 OPS 5712 (P/L 153) 1 02874U 67053H 26195.62125997 .00000021 00000+0 53231-4 0 9996 2 02874 69.9735 56.5041 0006896 180.9073 179.2021 13.96832228 10625 RIGIDSPHERE 2 (LCS 4) 1 05398U 71067E 26195.54138343 .00000384 00000+0 11824-3 0 9993 2 05398 87.6237 331.2125 0061460 140.5253 220.0448 14.37901409877813 COSMOS 2493 (SKRL-756 1) 1 39490U 13078A 26195.59495121 .00001578 00000+0 11725-3 0 9992 2 39490 82.4109 234.3710 0013977 145.9833 214.2291 15.02286137682070 COSMOS 2494 (SKRL-756 2) 1 39491U 13078B 26195.54356145 .00001696 00000+0 11718-3 0 9993 2 39491 82.4097 223.6951 0017861 109.7713 250.5442 15.05004041682926